United States

Cheney, KS Weather Archive

Below you will find the last 24 hours of weather readings for Cheney KS

Cheney KS Today's Weather Data

Observed at: Cheney, KS

Hour Observerd Temp Pressure Visibility Humidity Dew Point Wind
05:00 Partly Cloudy 26°F (-3.3°C) 101.59 kPa 10 miles 71% 18°F (-7.8°C) 8 mph NW 308.75°
04:00 Partly Cloudy 30°F (-1.1°C) 101.59 kPa 10 miles 64% 19°F (-7.2°C) 8 mph N 5°
03:00 Mostly Cloudy 32°F (0°C) 101.59 kPa 10 miles 61% 19.9°F (-6.7°C) 5 mph NE 38.75°
02:00 Mostly Cloudy 32°F (0°C) 101.59 kPa 10 miles 64% 21°F (-6.1°C) 6 mph NE 38.75°
01:00 Mostly Cloudy 30°F (-1.1°C) 101.59 kPa 10 miles 69% 21°F (-6.1°C) 4 mph E 83.75°
00:00 Fair 33°F (0.6°C) 101.59 kPa 10 miles 58% 19.9°F (-6.7°C) 4 mph NE 38.75°
23:00 Partly Cloudy 36°F (2.2°C) 101.59 kPa 10 miles 50% 19°F (-7.2°C) 5 mph NE 38.75°
22:00 Partly Cloudy 40°F (4.4°C) 101.59 kPa 10 miles 43% 19°F (-7.2°C) 4 mph N 5°
21:00 Overcast 38°F (3.3°C) 101.59 kPa 10 miles 45% 18.1°F (-7.7°C) 5 mph NE 38.75°
20:00 Partly Cloudy 40°F (4.4°C) 101.59 kPa 10 miles 43% 19°F (-7.2°C) 5 mph NE 38.75°
19:00 Mostly Cloudy 44°F (6.7°C) 101.59 kPa 10 miles 38% 19.9°F (-6.7°C) 8 mph N 5°
18:00 Mostly Cloudy 46°F (7.8°C) 101.59 kPa 10 miles 34% 19°F (-7.2°C) 6 mph N 5°
17:00 Partly Cloudy 49°F (9.4°C) 101.59 kPa 10 miles 27% 16°F (-8.9°C) 6 mph N 5°
16:00 A Few Clouds 53°F (11.7°C) 101.59 kPa 10 miles 25% 18°F (-7.8°C) 9 mph N 5°
15:00 A Few Clouds 54°F (12.2°C) 101.59 kPa 10 miles 26% 19.9°F (-6.7°C) 11 mph N 5°20 mph
14:00 Partly Cloudy 55°F (12.8°C) 101.59 kPa 10 miles 22% 17.1°F (-8.3°C) 12 mph N 5°23 mph
13:00 Partly Cloudy 53°F (11.7°C) 101.59 kPa 10 miles 30% 21.9°F (-5.6°C) 11 mph N 5°17 mph
12:00 Partly Cloudy 52°F (11.1°C) 101.59 kPa 10 miles 32% 23°F (-5°C) 12 mph N 5°19 mph
11:00 Partly Cloudy 49°F (9.4°C) 101.59 kPa 10 miles 38% 24.1°F (-4.4°C) 16 mph N 5°25 mph
10:00 Partly Cloudy 48°F (8.9°C) 101.59 kPa 10 miles 42% 26.1°F (-3.3°C) 11 mph N 5°
09:00 Partly Cloudy 44°F (6.7°C) 101.59 kPa 10 miles 58% 30°F (-1.1°C) 8 mph N 5°
08:00 Partly Cloudy 29°F (-1.7°C) 101.59 kPa 10 miles 89% 26.1°F (-3.3°C) 4 mph NW 308.75°
07:00 Partly Cloudy 29°F (-1.7°C) 101.59 kPa 10 miles 89% 26.1°F (-3.3°C) 4 mph NW 308.75°
06:00 A Few Clouds 34°F (1.1°C) 101.59 kPa 10 miles 82% 28.9°F (-1.7°C) 6 mph N 5°


Home | Earthquakes | About Us | Contact Us | Privacy

Copyright Friendly Forecast 2012 - 2023